Wind_Speed
43 43 44 44 45 45 44 44 44 43 43 43 43 43 43 43 44 44 44 45 45 45 45 44 44 44 44 44 44 43 43 42 42 42 41 41 41 41 41 40 40 39 39
44 44 44 45 45 45 45 45 44 43 43 43 43 43 43 43 43 43 44 45 46 46 46 46 46 46 46 46 46 45 44 43 43 43 43 42 42 42 42 42 41 41 41
44 44 44 44 45 45 45 45 44 44 44 44 44 44 44 44 44 44 45 45 46 47 47 47 47 47 47 47 47 47 46 46 46 46 46 45 43 42 43 43 43 43 42
43 43 43 44 44 45 45 45 45 45 45 46 46 46 45 46 46 46 47 48 48 48 48 48 49 49 48 48 49 48 48 47 47 48 48 48 46 44 44 44 44 44 43
42 42 43 43 43 44 44 44 45 45 46 46 47 47 47 47 48 48 47 48 49 50 50 50 50 50 50 50 50 49 50 50 49 48 49 48 48 47 46 45 45 45 45
41 41 42 43 43 43 43 44 44 45 46 46 47 48 48 47 49 49 49 49 50 50 50 51 52 52 52 52 52 52 52 52 52 51 50 50 50 49 49 47 47 47 46
40 40 41 41 42 43 43 44 45 45 46 46 47 48 49 48 48 49 50 50 50 50 51 51 52 53 53 53 53 54 53 52 53 53 52 52 52 52 51 50 49 48 48
39 40 40 41 42 42 43 44 45 45 46 46 47 47 48 49 49 50 51 51 51 51 51 51 52 53 54 54 53 53 54 54 53 54 54 54 53 53 53 52 50 50 49
38 38 39 41 42 42 42 43 44 45 45 45 46 47 47 48 49 49 50 51 51 51 51 51 52 53 54 54 54 53 54 53 53 53 53 53 54 54 53 53 51 50 50
37 38 39 40 41 42 42 43 44 44 45 45 46 47 48 49 49 49 49 49 50 51 51 51 52 53 54 54 54 54 54 54 52 52 52 52 53 53 53 53 52 52 52
36 37 38 40 41 41 41 42 43 43 44 45 45 46 47 48 49 50 51 51 51 51 51 52 52 52 52 53 53 53 54 54 54 52 52 51 52 53 52 53 53 52 52
36 37 37 38 39 40 41 41 42 42 43 44 45 46 46 47 48 49 50 51 51 51 51 51 51 51 51 52 53 53 53 54 54 54 54 52 52 52 52 52 52 52 51
35 35 36 37 38 39 40 41 42 43 43 44 44 45 46 47 48 49 50 50 51 51 51 51 51 51 51 51 51 52 52 53 53 53 53 53 52 52 51 51 51 50 49
34 34 35 36 37 38 39 39 40 41 43 43 44 45 47 48 48 49 50 50 50 51 51 51 51 51 51 50 50 51 51 52 52 52 53 52 52 51 50 50 50 49 48
33 34 34 35 35 36 37 38 39 41 42 43 43 44 45 47 48 49 49 49 50 50 50 50 50 50 51 50 50 50 51 51 51 51 51 51 51 51 51 51 51 50 49
33 33 34 34 35 36 37 38 39 40 41 42 43 44 45 46 47 48 49 49 49 49 49 49 49 49 50 50 50 50 49 49 50 50 50 50 51 51 51 51 51 51 50
32 32 33 34 34 35 36 37 37 38 40 41 42 43 44 45 45 47 47 47 48 48 48 47 47 47 48 48 48 48 47 47 48 48 48 48 48 49 49 50 50 50 50
31 31 32 32 33 34 35 36 36 37 37 38 39 40 41 42 43 43 44 44 44 45 45 45 44 44 45 45 45 46 46 45 45 45 45 46 46 47 48 48 48 48 48
30 31 31 31 32 33 34 35 36 36 36 37 37 37 38 39 40 40 40 41 42 42 42 43 43 43 43 43 43 44 44 44 44 43 44 44 45 45 46 46 46 46 46
31 31 30 30 31 32 33 33 34 34 35 34 34 35 36 37 37 38 38 38 38 39 39 39 40 40 41 41 41 41 42 42 42 42 42 43 43 43 44 44 44 44 44
31 31 30 30 30 30 31 32 32 32 33 33 33 34 34 35 36 36 36 36 36 36 37 37 37 38 38 39 39 40 40 40 40 40 40 41 41 41 41 41 41 42 43
30 30 30 30 30 30 31 31 31 30 31 31 32 32 33 33 33 34 35 35 35 35 35 35 36 36 37 38 39 39 38 38 39 39 39 39 39 39 39 39 40 41 42
29 29 29 30 30 31 30 30 29 29 29 30 30 31 31 31 32 32 33 34 34 34 34 34 34 35 36 36 37 36 37 37 37 38 38 38 38 38 39 39 39 40 41
29 29 29 29 30 30 30 29 29 28 28 28 29 30 30 31 31 31 32 32 33 33 33 34 34 34 34 35 35 35 35 36 36 36 37 37 38 38 38 38 39 39 40
28 28 28 28 28 28 29 29 29 28 28 29 29 29 30 30 31 31 31 31 31 32 32 32 32 32 32 33 33 33 34 34 35 35 36 36 36 37 37 38 38 37 37
26 26 26 26 26 27 27 28 28 28 28 28 28 29 29 29 30 30 30 30 30 29 29 29 29 30 30 30 31 31 32 33 33 33 34 35 35 36 36 36 36 36 36
Wind_Direction
256 256 257 256 257 258 258 258 258 259 259 260 260 259 259 259 257 256 255 255 255 256 256 257 258 259 259 259 261 261 261 263 264 264 264 264 264 263 264 264 266 267 267
258 258 258 257 258 258 258 258 258 258 258 259 259 259 259 257 256 255 254 255 255 257 257 257 258 259 259 259 260 262 262 262 264 264 264 264 264 264 264 265 265 266 267
260 259 259 259 258 258 258 258 257 258 258 258 258 258 258 258 256 256 256 256 256 257 257 258 258 259 260 259 259 260 262 263 262 262 263 264 264 265 264 264 264 265 266
259 260 260 260 259 258 257 257 257 258 258 258 258 258 259 259 258 258 258 257 257 257 257 258 258 259 260 260 260 260 261 262 263 262 262 263 264 265 264 264 264 265 266
259 260 260 259 259 258 257 257 257 258 259 258 259 258 259 260 259 259 258 258 258 258 259 259 259 259 259 260 260 260 261 263 263 263 263 263 263 264 265 264 264 265 266
260 260 259 259 259 259 258 258 258 259 259 259 259 259 259 259 259 259 258 258 258 259 260 260 260 260 260 261 260 261 262 262 262 263 263 262 262 263 264 264 265 265 266
261 260 260 259 259 259 259 259 259 258 258 259 259 259 258 259 259 259 258 258 258 259 260 261 261 261 261 261 261 261 262 262 262 262 262 261 261 262 263 265 265 265 266
261 261 260 260 260 260 260 260 260 259 260 260 260 260 259 259 260 261 259 258 258 259 259 260 261 261 261 261 262 261 261 261 262 263 261 261 262 263 263 265 266 266 266
263 263 262 261 261 261 261 261 261 261 261 261 261 261 260 260 261 261 260 259 259 259 260 260 261 261 261 261 261 261 261 261 262 262 262 262 262 263 263 264 265 266 266
264 263 263 263 262 262 262 262 263 262 262 262 262 263 263 262 262 261 261 262 262 262 261 261 261 261 261 261 261 261 261 261 260 260 261 262 261 261 261 262 263 265 267
266 266 265 264 264 263 262 263 263 262 262 263 263 262 263 263 263 263 262 263 263 264 263 262 263 263 262 262 261 260 259 259 259 259 261 262 261 261 261 260 261 264 266
269 268 267 266 265 265 263 263 263 263 263 263 263 263 263 264 264 263 264 264 263 263 264 263 263 262 262 262 261 261 260 260 260 260 261 262 262 261 260 260 261 263 265
271 269 268 267 266 266 266 265 265 263 264 264 264 264 264 264 264 264 265 265 265 264 264 264 263 262 262 262 262 262 262 261 260 260 261 262 262 262 261 261 263 263 265
272 271 271 269 268 268 268 268 267 266 266 265 265 265 265 265 265 265 265 266 266 265 265 264 263 263 263 262 263 263 262 261 260 260 261 261 262 262 262 262 263 263 264
273 273 272 272 271 270 270 270 270 270 269 268 267 266 267 266 266 266 266 265 265 265 264 264 264 264 263 263 263 264 263 261 260 260 261 261 261 262 262 262 262 263 265
273 274 274 273 273 272 273 272 272 272 271 270 269 267 268 268 267 267 267 267 266 265 264 264 264 264 263 263 263 264 262 261 260 260 260 261 261 261 262 263 263 263 265
274 275 275 275 274 274 274 274 274 275 274 273 272 270 270 269 268 268 268 267 266 265 265 264 265 265 265 265 264 264 263 262 262 261 260 260 261 261 262 262 264 264 266
277 277 277 276 276 276 276 276 276 276 276 276 275 274 273 271 271 269 268 266 266 264 263 263 264 264 265 266 265 264 263 263 262 261 260 260 260 261 261 261 263 265 265
280 280 279 279 279 279 279 278 277 278 278 277 276 275 275 274 272 270 269 267 266 264 263 262 263 263 265 265 265 263 262 261 261 261 259 259 260 261 261 261 262 264 264
281 282 281 281 281 282 282 281 280 279 278 277 276 276 275 274 273 272 270 268 266 265 263 263 262 263 264 264 264 263 262 260 259 260 260 260 260 261 261 261 261 262 264
282 282 281 282 282 283 284 283 282 281 279 277 275 276 276 274 272 270 269 268 266 266 265 264 264 264 264 263 263 262 261 258 259 259 260 260 261 261 261 260 261 262 265
282 282 282 282 283 284 285 285 284 282 281 279 277 276 276 275 272 270 269 268 267 266 266 267 265 265 265 265 263 262 261 259 259 259 259 260 260 260 261 262 263 264 266
283 282 282 282 283 284 286 286 286 284 282 281 280 278 277 275 274 272 270 269 267 266 267 268 267 266 266 266 265 262 260 259 258 258 258 260 260 261 262 263 264 265 266
284 283 282 283 285 286 287 288 287 286 284 283 283 281 279 277 275 275 274 272 270 268 267 267 268 267 266 265 263 261 260 259 258 259 260 260 261 261 262 262 264 265 266
283 283 284 285 286 287 288 288 287 286 285 285 283 282 280 277 277 276 275 274 272 270 269 268 267 266 266 264 262 260 259 258 258 259 260 261 260 262 263 263 264 264 264
284 285 285 287 288 289 288 288 286 284 284 285 285 283 281 279 277 276 275 274 272 271 270 269 269 267 266 263 260 259 259 260 260 260 261 261 260 260 261 263 262 262 263
Height
5716 5718 5720 5721 5724 5726 5728 5729 5731 5732 5733 5734 5735 5736 5737 5738 5739 5741 5744 5746 5749 5751 5753 5755 5757 5759 5761 5763 5765 5766 5768 5769 5770 5772 5773 5774 5775 5776 5777 5778 5779 5780 5781
5705 5707 5709 5711 5713 5715 5717 5719 5720 5721 5723 5724 5725 5726 5727 5728 5730 5731 5734 5736 5738 5740 5742 5744 5747 5749 5751 5753 5754 5756 5757 5759 5760 5761 5762 5764 5766 5766 5768 5768 5769 5770 5771
5694 5696 5697 5699 5702 5704 5706 5707 5709 5710 5712 5713 5714 5716 5717 5719 5720 5722 5724 5726 5728 5730 5732 5734 5736 5738 5740 5741 5743 5745 5746 5748 5749 5750 5751 5753 5755 5756 5758 5758 5759 5760 5761
5683 5685 5686 5688 5690 5692 5694 5696 5697 5699 5700 5702 5703 5705 5707 5708 5710 5711 5713 5715 5716 5718 5721 5723 5725 5727 5728 5730 5731 5733 5735 5736 5738 5739 5740 5742 5743 5745 5747 5748 5749 5750 5751
5672 5674 5676 5677 5679 5681 5682 5684 5685 5687 5689 5690 5691 5693 5695 5697 5698 5700 5701 5703 5705 5707 5709 5711 5713 5715 5716 5718 5719 5721 5723 5724 5726 5727 5728 5730 5731 5733 5734 5737 5738 5739 5740
5662 5663 5664 5666 5668 5669 5671 5673 5674 5675 5677 5678 5679 5681 5683 5684 5686 5688 5690 5692 5693 5695 5697 5699 5700 5702 5704 5705 5707 5708 5710 5712 5713 5715 5716 5718 5719 5721 5722 5724 5726 5728 5729
5651 5652 5654 5655 5657 5658 5660 5661 5662 5663 5664 5666 5667 5668 5670 5672 5673 5675 5677 5679 5681 5682 5684 5686 5687 5689 5691 5692 5693 5695 5697 5699 5700 5702 5704 5705 5707 5708 5710 5711 5713 5715 5717
5641 5642 5643 5644 5645 5647 5648 5649 5650 5651 5652 5654 5655 5656 5658 5659 5661 5662 5664 5666 5668 5669 5671 5672 5674 5675 5677 5678 5680 5682 5683 5685 5687 5688 5690 5692 5694 5696 5697 5699 5700 5702 5704
5631 5632 5633 5633 5634 5636 5637 5637 5638 5639 5641 5642 5643 5644 5645 5647 5648 5649 5650 5652 5654 5656 5657 5658 5660 5661 5663 5665 5666 5668 5670 5671 5673 5675 5677 5679 5681 5682 5684 5685 5686 5688 5690
5621 5622 5622 5622 5623 5624 5625 5626 5627 5628 5629 5630 5631 5632 5633 5634 5635 5636 5637 5639 5640 5642 5643 5644 5646 5647 5649 5650 5652 5654 5655 5657 5659 5661 5663 5665 5667 5669 5670 5672 5673 5674 5676
5611 5611 5611 5611 5612 5613 5613 5615 5615 5616 5617 5617 5618 5620 5620 5621 5622 5623 5625 5626 5627 5628 5629 5631 5632 5633 5634 5635 5637 5638 5640 5642 5644 5647 5649 5651 5653 5655 5656 5658 5660 5661 5662
5601 5601 5601 5601 5601 5602 5603 5603 5604 5604 5605 5605 5606 5607 5608 5609 5609 5610 5611 5612 5613 5614 5615 5616 5617 5619 5620 5621 5622 5624 5625 5628 5630 5632 5634 5636 5638 5641 5642 5644 5646 5647 5648
5590 5591 5590 5590 5591 5591 5591 5592 5592 5593 5593 5593 5594 5594 5595 5596 5596 5597 5597 5598 5599 5600 5601 5602 5604 5605 5606 5607 5608 5610 5611 5613 5616 5618 5620 5622 5624 5626 5628 5630 5632 5633 5635
5581 5581 5580 5580 5580 5580 5580 5580 5581 5581 5581 5581 5581 5582 5582 5582 5582 5583 5584 5585 5586 5587 5587 5588 5590 5591 5592 5593 5595 5596 5597 5599 5602 5604 5606 5608 5610 5612 5615 5616 5618 5620 5622
5571 5571 5571 5570 5570 5570 5569 5569 5569 5569 5569 5569 5569 5569 5569 5569 5569 5569 5570 5571 5572 5573 5573 5574 5576 5577 5578 5580 5581 5582 5584 5585 5588 5590 5592 5594 5597 5599 5601 5603 5605 5607 5608
5562 5562 5561 5561 5560 5559 5559 5558 5558 5557 5557 5557 5556 5556 5556 5555 5555 5556 5556 5557 5558 5558 5559 5560 5562 5563 5564 5566 5567 5568 5570 5572 5574 5576 5578 5581 5583 5585 5587 5589 5591 5593 5595
5554 5553 5552 5551 5550 5549 5548 5547 5546 5545 5545 5544 5543 5543 5543 5542 5542 5542 5542 5543 5543 5544 5545 5546 5548 5549 5551 5552 5553 5555 5556 5558 5560 5562 5565 5567 5570 5572 5574 5576 5578 5580 5581
5545 5544 5543 5541 5540 5539 5538 5537 5536 5534 5533 5532 5531 5531 5530 5529 5529 5529 5529 5529 5530 5531 5532 5533 5535 5536 5537 5538 5540 5541 5543 5545 5547 5549 5552 5554 5557 5559 5561 5563 5565 5566 5568
5536 5534 5533 5532 5531 5529 5528 5526 5525 5524 5522 5521 5520 5519 5518 5517 5517 5517 5517 5517 5517 5518 5519 5521 5522 5523 5525 5526 5527 5528 5531 5533 5535 5537 5539 5541 5544 5546 5548 5550 5552 5554 5555
5527 5525 5524 5523 5521 5520 5518 5516 5515 5513 5512 5511 5510 5508 5507 5506 5506 5505 5505 5505 5506 5507 5507 5509 5510 5511 5513 5514 5515 5516 5518 5521 5523 5525 5527 5529 5531 5533 5534 5537 5539 5541 5542
5518 5517 5515 5514 5512 5511 5509 5507 5505 5503 5502 5500 5499 5498 5497 5496 5495 5495 5494 5495 5495 5496 5497 5498 5499 5500 5501 5502 5503 5505 5506 5509 5511 5513 5516 5518 5519 5521 5523 5524 5526 5528 5529
5510 5508 5507 5505 5504 5502 5500 5497 5495 5494 5492 5490 5489 5488 5486 5485 5484 5484 5484 5484 5484 5485 5486 5487 5488 5489 5490 5491 5492 5493 5495 5497 5500 5502 5504 5506 5508 5509 5511 5513 5514 5515 5517
5502 5500 5499 5497 5495 5493 5491 5489 5486 5484 5483 5481 5479 5478 5476 5475 5474 5474 5473 5473 5474 5475 5476 5477 5478 5478 5479 5480 5481 5482 5484 5486 5488 5491 5493 5495 5497 5498 5500 5501 5502 5503 5504
5494 5492 5490 5488 5487 5484 5482 5480 5478 5476 5474 5472 5470 5469 5467 5466 5465 5464 5463 5463 5463 5464 5465 5466 5467 5468 5469 5470 5471 5472 5474 5475 5478 5480 5482 5484 5485 5487 5488 5489 5490 5492 5493
5485 5484 5482 5480 5478 5476 5474 5471 5469 5467 5465 5463 5462 5460 5458 5457 5456 5455 5454 5454 5454 5454 5455 5456 5457 5458 5459 5460 5461 5462 5464 5466 5468 5470 5471 5473 5474 5476 5477 5478 5480 5481 5481
5477 5476 5474 5472 5470 5468 5465 5463 5460 5458 5457 5455 5453 5451 5450 5448 5447 5446 5446 5445 5445 5445 5445 5446 5447 5448 5449 5450 5451 5452 5454 5455 5457 5459 5461 5462 5464 5465 5466 5468 5469 5470 5471